Watertown, SD

2:28 PM CDT on October 22, 2017 (GMT -0500)
Watertown Municipal

Weather History for KATY - May, 2013

Change the Weather History Date:

Wednesday, May 22, 2013

  Actual Average Record
Temperature  
Mean Temperature 47 °F 58 °F  
Max Temperature 53 °F 69 °F 92 °F (1964)
Min Temperature 41 °F 47 °F 22 °F (1931)
Degree Days  
Heating Degree Days 18 8  
Month to date heating degree days 277 237  
Since 1 July heating degree days 8951 8388  
Cooling Degree Days 0 1  
Month to date cooling degree days 19 11  
Year to date cooling degree days 19 13  
Moisture  
Dew Point 45 °F    
Average Humidity 86    
Maximum Humidity 100    
Minimum Humidity 71    
Precipitation  
Precipitation 0.11 in 0.09 in 2.48 in (1972)
Month to date precipitation 2.29 1.80  
Year to date precipitation 7.05 6.01  
Sea Level Pressure  
Sea Level Pressure 29.86 in    
Wind  
Wind Speed 14 mph (NNE)    
Max Wind Speed 25 mph    
Max Gust Speed 31 mph    
Visibility 9 miles    
Events Rain    
T = Trace of Precipitation, MM = Missing Value Source: NWS Daily Summary

Daily Weather History Graph

Daily Weather History Graph

Search for Another Location

Airport or City:

Trip Planner

Search our weather history database for the weather conditions in past years. The results will help you decide how hot, cold, wet, or windy it might be!

Date:

Astronomy

May. 22, 2013 Rise Set
Actual Time 5:52 AM CDT 8:58 PM CDT
Civil Twilight 5:17 AM CDT 9:33 PM CDT
Nautical Twilight 4:32 AM CDT 10:19 PM CDT
Astronomical Twilight 3:37 AM CDT 11:14 PM CDT
Moon 6:16 PM CDT 4:04 AM CDT
Length of Visible Light 16h 16m
Length of Day
15h 06m
Waxing Gibbous, 91% of the Moon is Illuminated
May 22
Waxing Gibbous
May 24
Full
May 31
Last Quarter
Jun 8
New
Jun 16
First Quarter

Hourly Weather History & Observations

Time (CDT) Temp. Windchill Dew Point Humidity Pressure Visibility Wind Dir Wind Speed Gust Speed Precip Events Conditions
12:06 AM 46.4 °F 40.4 °F 46.4 °F 100% 29.76 in 10.0 mi NNE 13.8 mph - N/A   Overcast
12:14 AM 46.4 °F 40.7 °F 46.4 °F 100% 29.76 in 10.0 mi NNE 12.7 mph - N/A   Overcast
12:53 AM 46.9 °F - 46.0 °F 97% 29.78 in 10.0 mi NNE 12.7 mph - N/A   Overcast
1:53 AM 46.9 °F - 45.0 °F 93% 29.77 in 10.0 mi NNE 13.8 mph - N/A   Overcast
2:53 AM 46.0 °F 40.6 °F 45.0 °F 96% 29.78 in 10.0 mi NNE 11.5 mph - N/A   Overcast
3:41 AM 46.4 °F 40.7 °F 44.6 °F 93% 29.76 in 10.0 mi NNE 12.7 mph - 0.00 in Rain Light Rain
3:53 AM 46.0 °F 40.2 °F 45.0 °F 96% 29.78 in 10.0 mi NNE 12.7 mph - 0.01 in Rain Light Rain
4:27 AM 46.4 °F 40.7 °F 44.6 °F 93% 29.77 in 10.0 mi NNE 12.7 mph - 0.01 in Rain Light Rain
4:53 AM 46.0 °F 39.9 °F 44.1 °F 93% 29.80 in 10.0 mi NNE 13.8 mph - 0.01 in   Overcast
5:20 AM 44.6 °F 37.8 °F 44.6 °F 100% 29.78 in 10.0 mi NNE 15.0 mph - 0.01 in Rain Light Rain
5:53 AM 45.0 °F 37.9 °F 44.1 °F 97% 29.81 in 10.0 mi NNE 16.1 mph - 0.02 in   Overcast
6:25 AM 44.6 °F 38.8 °F 44.6 °F 100% 29.79 in 10.0 mi NNE 11.5 mph - 0.00 in Rain Light Rain
6:38 AM 44.6 °F 38.8 °F 44.6 °F 100% 29.79 in 10.0 mi NNE 11.5 mph - 0.01 in Rain Light Rain
6:53 AM 45.0 °F 38.9 °F 44.1 °F 97% 29.81 in 10.0 mi NNE 12.7 mph - 0.01 in Rain Light Rain
7:49 AM 44.6 °F 38.4 °F 44.6 °F 100% 29.79 in 9.0 mi NNE 12.7 mph - 0.02 in Rain Light Rain
7:50 AM 45.0 °F 39.3 °F 44.1 °F 97% 29.81 in 9.0 mi NNE 11.5 mph - 0.02 in Rain Light Rain
8:53 AM 46.0 °F 39.3 °F 44.1 °F 93% 29.83 in 8.0 mi NNE 16.1 mph - 0.02 in Rain Light Rain
8:56 AM 46.4 °F 40.4 °F 44.6 °F 93% 29.81 in 9.0 mi NNE 13.8 mph - 0.00 in Rain Light Rain
9:04 AM 46.4 °F 40.4 °F 44.6 °F 93% 29.81 in 10.0 mi NNE 13.8 mph 21.9 mph 0.00 in Rain Light Rain
9:15 AM 46.4 °F 40.1 °F 44.6 °F 93% 29.81 in 8.0 mi NNE 15.0 mph 21.9 mph 0.01 in Rain Light Rain
9:34 AM 46.4 °F 40.7 °F 44.6 °F 93% 29.81 in 9.0 mi NNE 12.7 mph - 0.01 in   Overcast
9:53 AM 46.9 °F - 45.0 °F 93% 29.83 in 4.0 mi NNE 16.1 mph - 0.01 in Rain Light Rain
10:08 AM 48.2 °F - 44.6 °F 87% 29.82 in 10.0 mi NNE 13.8 mph 21.9 mph 0.00 in   Overcast
10:33 AM 46.4 °F 40.1 °F 44.6 °F 93% 29.82 in 9.0 mi NNE 15.0 mph - 0.00 in   Overcast
10:44 AM 46.4 °F 39.5 °F 44.6 °F 93% 29.83 in 3.0 mi NNE 17.3 mph 23.0 mph 0.00 in   Overcast
10:53 AM 48.0 °F - 46.0 °F 93% 29.84 in 7.0 mi NNE 15.0 mph - 0.00 in   Overcast
11:14 AM 48.2 °F - 44.6 °F 87% 29.83 in 10.0 mi NE 15.0 mph - N/A   Overcast
11:40 AM 48.2 °F - 44.6 °F 87% 29.84 in 8.0 mi NNE 13.8 mph - 0.00 in   Overcast
11:53 AM 50.0 °F - 46.0 °F 86% 29.86 in 10.0 mi NNE 19.6 mph 24.2 mph 0.00 in   Overcast
12:31 PM 50.0 °F - 46.4 °F 87% 29.85 in 5.0 mi NNE 17.3 mph - N/A   Overcast
12:43 PM 50.0 °F - 46.4 °F 87% 29.85 in 3.0 mi NNE 16.1 mph 23.0 mph 0.01 in   Overcast
12:53 PM 50.0 °F - 46.9 °F 89% 29.87 in 10.0 mi NNE 21.9 mph 27.6 mph 0.01 in   Overcast
12:59 PM 50.0 °F - 46.4 °F 87% 29.85 in 10.0 mi NNE 19.6 mph 27.6 mph N/A   Overcast
1:53 PM 50.0 °F - 46.9 °F 89% 29.89 in 6.0 mi NNE 17.3 mph 25.3 mph N/A   Overcast
2:36 PM 50.0 °F - 46.4 °F 87% 29.88 in 7.0 mi NNE 19.6 mph 26.5 mph N/A   Overcast
2:53 PM 52.0 °F - 48.0 °F 86% 29.90 in 10.0 mi NE 16.1 mph 27.6 mph N/A   Overcast
3:43 PM 51.8 °F - 48.2 °F 88% 29.89 in 6.0 mi NE 19.6 mph 26.5 mph N/A   Overcast
3:53 PM 53.1 °F - 48.9 °F 86% 29.91 in 10.0 mi NNE 18.4 mph 26.5 mph N/A   Overcast
4:53 PM 52.0 °F - 48.0 °F 86% 29.94 in 10.0 mi NE 17.3 mph 26.5 mph 0.00 in   Overcast
5:53 PM 52.0 °F - 48.0 °F 86% 29.96 in 10.0 mi NE 20.7 mph 28.8 mph N/A   Overcast
6:12 PM 51.8 °F - 48.2 °F 88% 29.95 in 7.0 mi NE 16.1 mph 26.5 mph N/A   Overcast
6:53 PM 52.0 °F - 48.9 °F 89% 29.99 in 8.0 mi NE 20.7 mph 29.9 mph N/A   Overcast
7:04 PM 51.8 °F - 46.4 °F 82% 29.97 in 10.0 mi ENE 19.6 mph 28.8 mph N/A   Overcast
7:53 PM 53.1 °F - 46.0 °F 77% 30.01 in 10.0 mi ENE 13.8 mph 23.0 mph N/A   Partly Cloudy
8:53 PM 52.0 °F - 45.0 °F 77% 30.02 in 10.0 mi ENE 10.4 mph - N/A   Overcast
9:53 PM 51.1 °F - 43.0 °F 74% 30.06 in 10.0 mi ENE 9.2 mph - N/A   Partly Cloudy
10:53 PM 45.0 °F 42.6 °F 42.1 °F 90% 30.08 in 10.0 mi NE 4.6 mph - N/A   Clear
11:53 PM 44.1 °F 40.8 °F 42.1 °F 93% 30.10 in 10.0 mi NNE 5.8 mph - N/A   Clear